Home   Weather   Warminster Township   Past weeks

Flag for USA Past Weather in Warminster Township, Pennsylvania, USA — Yesterday and Last 2 Weeks

Now
34 °F

Clear.


Feels Like: 31 °F
Forecast: 29 / 43 °F
Wind: 3 mph from Southwest

Location: Doylestown Airport

Current Time: Dec 8, 2016 at 5:15:15 am

Latest Report: Dec 8, 2016 at 3:54 am


Visibility: 10 mi

Pressure: 30.01 "Hg

Humidity: 85%

Dew Point: 30 °F

Location of Warminster TownshipLocation

Past Weather in Warminster Township — Graph

°F

Warminster Township Temperature Yesterday

Maximum temperature yesterday: 47 °F (at 12:54 pm)
Minimum temperature yesterday: 33 °F (at 10:54 pm)
Average temperature yesterday: 40 °F

High & Low Weather Summary for the Past Weeks

 TemperatureHumidityPressure
High60 °F (Nov 29, 3:54 pm)100% (Nov 29, 4:54 pm)30.34 "Hg (Nov 29, 4:54 pm)
Low29 °F (Nov 28, 5:54 am)30% (Nov 23, 2:54 pm)29.47 "Hg (Dec 1, 1:54 am)
Average44 °F71%30.05 "Hg
* Reported Nov 23 3:54 am — Dec 8 3:54 am, Warminster Township, Weather by CustomWeather, © 2016

Note: Actual official high and low records may vary slightly from our data, if they occured in-between our weather recording intervals... More about our weather records

Advertising

Warminster Township Weather History for the Previous 24 Hours

Scroll right to see more
 ConditionsComfort  
Time TempWeatherWind HumidityBarometerVisibility
3:54 am
Thu, Dec 8
34 °FClear.3 mph85%30.01 "Hg10 mi
2:54 am33 °FClear.3 mph88%30.02 "Hg10 mi
1:54 am35 °FClear.3 mph82%30.02 "Hg10 mi
12:54 am34 °FClear.No wind88%30.01 "Hg10 mi
11:54 pm
Wed, Dec 7
35 °FClear.3 mph85%30.03 "Hg10 mi
10:54 pm33 °FClear.No wind92%30.04 "Hg10 mi
9:54 pm36 °FClear.No wind85%30.04 "Hg10 mi
8:54 pm36 °FClear.No wind89%30.04 "Hg10 mi
7:54 pm39 °FClear.No wind82%30.06 "Hg10 mi
6:54 pm41 °FClear.No wind86%30.05 "Hg10 mi
5:54 pm40 °FClear.No wind89%30.05 "Hg10 mi
4:54 pm44 °FClear.No wind73%30.03 "Hg10 mi
3:54 pm46 °FPassing clouds.5 mph68%30.01 "Hg10 mi
2:54 pm47 °FMostly cloudy.5 mph69%30.00 "Hg10 mi
1:54 pm46 °FOvercast.6 mph71%29.99 "Hg10 mi
12:54 pm47 °FOvercast.8 mph74%29.99 "Hg10 mi
11:54 am45 °FMostly cloudy.6 mph86%29.98 "Hg10 mi
10:54 am44 °FMostly cloudy.6 mph85%30.00 "Hg10 mi
10:01 am41 °FMostly cloudy.3 mph93%30.01 "Hg10 mi
9:54 am41 °FMore clouds than sun.5 mph93%30.02 "Hg10 mi
8:54 am39 °FFog.5 mph96%30.01 "Hg5 mi
8:04 am39 °FFog.3 mph93%29.98 "Hg5 mi
7:54 am39 °FFog.3 mph93%29.99 "Hg5 mi
6:54 am39 °FLow clouds.No wind96%29.95 "Hg10 mi
5:54 am39 °FMostly cloudy.No wind96%29.94 "Hg10 mi
Weather by CustomWeather, © 2016

See weather overviewHow to use our weather pages